THORAD DELTA 1 DEB, 9987

Orbit data source: Space-Track

THORAD DELTA 1 DEB, 9987 is space debris in SSO originally from a launch on Fri, 15 Nov 1974 UTC launched from the Air Force Western Test Range (AFWTR). Debris objects in space refer to the collection of defunct objects orbiting the Earth. Examples of debris include non-operational satellites, rocket bodies, and fragments generated from explosions, collisions, or faulty payload assembly.

Loading next visibility...
Identifier
9987, 1974-089EE
Orbit
SSO
Country
Flag of USUS
Related business
Manufacturer
Unknown
Mission
Spacecraft
Bus & Motor
Unknown
Mass
Unknown
Launch date (UTC)
1974-11-15 (51 years ago)
Launch vehicle
Unknown
Launch site
Air Force Western Test Range (AFWTR)
Object type
Payload
Rocket body
Debris
Shape & HBR
Unknown shape, 0.1 m
Radar Cross Section
Small (<0.1 m²)

Expand to show TLE details & history
Last TLE update: 15 hours ago

TLE from 15 hours ago
0 THORAD DELTA 1 DEB
1  9987U 74089EE  26035.33722465  .00000772  00000-0  51348-2 0  9998
2  9987 101.4641 174.9065 0092054   1.8021  66.6683 12.52049108332720
Epoch: 2026-02-04T08:05Z
TLE epoch observation values (Epoch: 2026-02-04T08:05:36.209Z)
Latitude
66.66582°
Longitude
-108.89163°
Altitude
1,439.303 km
Speed
7.161 km/s
True Right ascension
09h 48m 03s
True Declination
66° 33' 05"
Sunlit
Object was in full shadow at epoch
Visualization orbit readout
Latitude
Unknown
Longitude
Unknown
Altitude
Unknown
Speed
Unknown
Apparent Right ascension
Unknown
Apparent Declination
Unknown
Sunlit
N/A
Visualization observer readout
Local Sidereal Time
00:45:41
Azimuth
Unknown
Elevation
Unknown
Doppler factor
Unknown
Orbital elements
Apogee altitude
1,525.556 km
Perigee altitude
1,381.37 km
Semi-major axis
7,831.6 km
Eccentricity
0.00921
Inclination
101.4641°
RAAN
174.9065°
Arg. of periapsis
1.8021°
True anomaly
67.64129°
Mean anomaly
66.6683°
Eccentric anomaly
67.15436°
Mean motion
3.13161 °/min
Orbital period
114.96 mins
BSTAR
0.0051348
Loading maneuver chart data...
Computing Atmospheric mass density...
Loading historical data...
Loading historical data...
Loading historical data...
Loading historical data...
Loading historical data...
Loading historical data...
Loading historical data...

Documentation

Showing up to 5 results
|